GFSFLT1_sfc_avort_036.txt.gz
Vorticity
nan nan nan nan nan nan nan nan nan nan nan nan nan nan nan nan nan nan nan nan nan nan nan nan nan nan nan nan nan nan nan nan nan
nan 7 7 10 10 8 7 9 9 8 7 7 7 6 6 7 9 8 7 7 6 8 10 11 11 10 8 8 8 8 7 7 nan
nan 9 6 9 12 10 7 8 10 9 9 8 7 7 6 7 7 8 8 8 8 6 9 11 11 10 9 8 8 7 7 7 nan
nan 9 7 7 9 11 9 7 10 9 10 8 7 8 8 7 7 7 7 8 8 7 7 11 10 11 10 9 9 7 6 7 nan
nan 8 7 8 12 10 10 8 9 9 9 9 9 8 8 8 8 9 7 6 8 9 6 7 11 11 11 10 9 9 7 7 nan
nan 12 12 8 9 11 10 8 8 10 10 9 8 8 8 9 8 8 9 8 6 7 10 7 9 11 11 10 10 9 8 8 nan
nan 20 11 9 8 9 10 10 8 9 8 10 10 9 9 8 9 8 8 9 9 7 7 9 7 8 11 10 11 10 9 8 nan
nan 21 12 8 7 8 10 9 8 9 10 11 10 8 8 9 9 8 9 9 10 9 7 7 9 7 8 10 9 10 11 9 nan
nan 18 12 10 8 7 8 10 9 9 10 11 9 9 8 8 9 9 9 8 9 9 9 8 8 8 8 6 9 14 11 6 nan
nan 27 24 15 12 10 10 11 10 10 9 9 9 9 9 10 10 9 9 9 9 10 9 9 9 8 8 8 10 15 13 6 nan
nan 13 15 18 18 13 14 16 13 10 13 11 9 9 9 10 10 10 10 10 9 9 10 10 10 10 9 9 11 14 13 11 nan
nan 9 8 10 13 15 20 17 13 11 9 10 9 10 9 11 11 9 9 9 9 9 9 9 11 11 11 9 12 13 10 7 nan
nan 14 13 10 12 13 11 16 21 17 11 9 9 10 10 10 11 11 9 10 9 9 9 9 10 11 12 11 13 14 12 4 nan
nan 13 13 12 14 14 12 15 15 15 21 16 12 13 13 12 11 11 11 9 10 10 10 10 10 11 12 13 13 15 15 5 nan
nan 10 11 16 13 10 12 15 14 13 10 17 19 14 13 14 14 12 15 14 11 12 11 11 10 11 11 13 15 16 14 12 nan
nan 8 10 11 11 10 9 10 10 8 7 15 20 16 10 12 13 13 14 13 11 12 13 11 12 11 10 10 12 17 21 16 nan
nan 9 10 9 9 10 10 9 9 7 9 11 10 13 17 15 12 11 12 14 13 11 12 11 11 11 11 11 11 10 14 16 nan
nan 9 9 11 9 9 9 10 10 8 8 10 10 10 16 16 15 11 7 9 17 20 18 18 16 14 14 13 15 14 11 13 nan
nan 8 9 10 9 9 9 9 8 8 11 12 11 11 14 15 13 12 11 7 3 10 17 24 22 22 16 14 17 14 11 13 nan
nan nan nan nan nan nan nan nan nan nan nan nan nan nan nan nan nan nan nan nan nan nan nan nan nan nan nan nan nan nan nan nan nan

GFSFLT1_sfc_avort_042.txt.gz
Vorticity
nan nan nan nan nan nan nan nan nan nan nan nan nan nan nan nan nan nan nan nan nan nan nan nan nan nan nan nan nan nan nan nan nan
nan 10 10 11 10 9 9 10 10 7 6 8 8 7 6 8 8 7 8 9 7 8 9 10 10 10 8 8 8 8 7 7 nan
nan 10 10 10 10 11 11 10 9 10 10 9 8 7 7 8 9 7 7 8 8 8 8 8 9 10 9 9 9 8 7 6 nan
nan 10 10 9 8 10 10 11 11 9 10 9 8 8 9 8 9 8 8 7 9 8 8 8 7 9 9 9 9 9 8 7 nan
nan 12 9 9 11 10 10 10 10 10 9 9 9 9 9 8 8 9 7 8 9 10 8 8 8 8 8 9 9 10 9 8 nan
nan 14 11 10 11 12 10 10 11 11 9 9 9 10 9 8 8 9 9 7 8 9 9 8 8 8 8 8 9 9 10 10 nan
nan 14 15 13 11 13 12 10 11 11 10 10 10 9 9 8 9 9 9 9 8 9 8 8 8 8 9 8 9 9 9 9 nan
nan 13 11 12 10 11 11 10 9 11 11 11 10 10 9 9 9 9 9 10 9 8 9 8 9 8 8 8 7 8 10 9 nan
nan 10 11 13 13 10 11 9 9 9 11 12 10 9 9 9 10 9 9 9 10 8 8 9 9 9 9 7 8 12 8 5 nan
nan 22 21 16 15 11 9 10 9 11 10 10 10 9 10 10 10 9 9 9 9 10 9 9 9 8 9 9 11 13 11 5 nan
nan 20 25 24 14 13 12 11 8 11 15 11 10 9 9 10 10 10 10 10 9 9 11 10 9 10 9 8 11 14 11 10 nan
nan 20 24 21 17 15 17 13 12 11 11 11 9 9 9 10 10 9 9 9 8 8 9 10 10 10 11 9 10 14 10 8 nan
nan 20 28 21 15 14 15 17 15 12 11 9 11 11 9 10 10 10 9 10 9 8 9 9 10 11 12 11 12 12 12 5 nan
nan 15 18 22 20 16 12 13 13 11 11 10 8 13 13 11 11 10 9 10 11 11 10 10 10 11 11 13 12 13 15 6 nan
nan 12 12 17 16 15 17 19 15 12 6 11 15 13 12 11 10 10 12 12 10 10 11 10 10 10 10 13 15 14 13 13 nan
nan 10 12 12 14 12 13 17 16 10 13 15 14 14 12 12 12 11 11 10 8 10 11 10 10 10 10 11 13 17 18 14 nan
nan 9 10 10 10 10 10 10 12 10 12 15 15 13 12 14 13 11 12 13 12 11 12 10 11 11 11 11 11 12 14 13 nan
nan 8 10 12 11 8 9 11 10 10 12 11 11 13 14 12 13 11 8 9 16 19 15 18 16 12 14 13 13 16 16 16 nan
nan 8 9 10 11 11 11 12 10 10 11 13 13 11 10 12 14 13 11 8 3 10 17 21 25 22 12 10 17 21 17 15 nan
nan nan nan nan nan nan nan nan nan nan nan nan nan nan nan nan nan nan nan nan nan nan nan nan nan nan nan nan nan nan nan nan nan

GFSFLT1_sfc_avort_045.txt.gz
Vorticity
nan nan nan nan nan nan nan nan nan nan nan nan nan nan nan nan nan nan nan nan nan nan nan nan nan nan nan nan nan nan nan nan nan
nan 12 11 11 8 7 8 9 9 8 7 8 9 7 7 8 8 7 8 9 7 7 9 10 10 8 8 9 8 7 6 7 nan
nan 12 10 10 11 9 8 9 9 8 8 9 8 8 7 9 9 8 8 9 9 8 9 9 10 9 8 9 8 8 7 6 nan
nan 10 11 10 10 11 9 8 9 8 8 8 8 9 8 8 9 9 8 8 9 9 9 9 8 8 8 8 9 9 8 6 nan
nan 11 10 11 11 11 10 9 9 9 8 7 7 8 9 8 8 10 8 8 9 9 8 8 8 8 8 8 8 9 9 8 nan
nan 14 11 12 13 12 11 11 9 10 11 10 7 8 8 8 9 9 8 10 9 9 9 9 9 8 8 8 8 8 8 8 nan
nan 14 14 13 11 12 12 11 11 11 11 11 11 9 8 8 10 9 9 9 10 9 8 8 9 9 9 8 7 8 8 8 nan
nan 13 16 15 9 10 11 10 11 11 11 12 12 10 10 9 9 9 10 10 10 10 8 9 9 8 9 8 8 10 11 8 nan
nan 10 13 15 12 10 11 10 11 10 10 11 10 10 9 10 11 10 9 9 9 9 9 9 9 9 9 7 8 12 11 8 nan
nan 9 10 13 17 13 11 11 10 12 10 10 10 9 10 10 10 10 10 9 9 9 9 9 10 10 9 9 9 13 12 8 nan
nan 11 12 13 15 16 15 14 9 11 13 10 10 9 9 10 10 9 10 10 9 9 10 10 9 10 9 8 9 13 11 10 nan
nan 15 15 16 18 19 18 16 14 12 11 10 9 10 9 10 10 10 10 10 9 9 10 9 10 10 10 8 10 13 10 7 nan
nan 20 23 25 26 24 17 15 13 12 11 8 9 10 9 9 10 10 9 10 10 9 10 9 10 10 10 9 11 10 13 6 nan
nan 16 24 36 30 18 16 15 13 10 11 10 9 11 12 10 10 9 9 9 10 10 9 10 10 10 11 13 11 12 15 7 nan
nan 13 19 27 29 23 18 13 10 11 9 12 13 12 11 10 10 9 11 10 10 10 10 9 10 10 10 12 15 15 12 13 nan
nan 13 14 17 19 17 20 19 18 14 12 15 11 9 10 11 10 9 10 11 9 10 10 9 10 10 10 11 13 17 15 13 nan
nan 11 11 12 11 11 14 17 18 17 19 15 12 10 9 10 11 10 9 9 10 10 10 10 10 10 10 11 10 11 13 12 nan
nan 8 10 11 10 8 9 9 10 11 18 23 18 13 12 10 11 11 9 7 14 19 12 14 15 10 11 14 14 17 16 15 nan
nan 9 11 9 10 10 9 9 8 8 11 17 22 18 14 14 16 11 12 8 1 6 18 22 23 21 16 9 15 23 20 18 nan
nan nan nan nan nan nan nan nan nan nan nan nan nan nan nan nan nan nan nan nan nan nan nan nan nan nan nan nan nan nan nan nan nan

GFSFLT1_sfc_avort_048.txt.gz
Vorticity
nan nan nan nan nan nan nan nan nan nan nan nan nan nan nan nan nan nan nan nan nan nan nan nan nan nan nan nan nan nan nan nan nan
nan 13 11 11 9 9 9 9 9 7 7 9 9 6 6 8 7 7 6 8 7 5 7 8 10 9 8 8 8 8 6 7 nan
nan 12 11 11 11 9 8 10 10 9 7 8 8 8 6 8 7 7 6 8 7 8 7 7 9 11 9 9 9 8 6 8 nan
nan 9 11 10 11 11 9 9 11 10 8 8 8 8 8 8 9 8 7 7 8 8 8 9 9 9 10 9 8 8 6 5 nan
nan 8 9 11 12 11 11 10 9 10 9 8 8 8 9 9 8 9 8 8 8 9 9 8 8 9 9 8 8 9 8 8 nan
nan 9 11 9 10 11 12 10 10 10 9 9 8 8 8 9 8 8 8 9 10 9 9 9 9 9 8 8 8 8 8 8 nan
nan 15 9 12 11 12 12 11 11 12 10 10 9 10 7 9 10 9 9 9 11 9 9 9 9 9 8 8 9 9 8 8 nan
nan 16 16 14 11 11 11 11 10 12 11 11 10 10 9 8 9 10 10 10 10 10 9 9 10 9 9 8 9 11 11 8 nan
nan 9 12 13 14 12 12 10 10 9 12 12 10 10 11 9 10 10 10 10 10 10 9 10 10 9 9 7 8 12 11 11 nan
nan 10 9 10 13 14 13 13 11 10 10 10 10 9 11 10 10 10 10 9 9 10 9 9 10 10 9 9 8 11 13 10 nan
nan 10 9 10 11 11 13 14 12 13 11 9 10 10 10 10 10 10 10 10 9 9 9 9 10 10 9 9 10 12 12 10 nan
nan 9 11 12 11 10 12 16 16 14 11 11 9 10 9 10 10 10 9 10 9 9 9 9 10 10 10 8 10 13 10 7 nan
nan 15 13 11 14 17 14 15 14 14 12 9 9 10 10 9 10 10 10 10 9 9 10 10 10 11 10 9 10 10 13 5 nan
nan 13 16 18 20 20 17 18 17 13 12 12 10 10 11 10 10 10 10 9 10 10 9 9 11 10 11 13 10 11 16 6 nan
nan 13 20 25 29 25 22 17 16 14 9 12 14 12 12 11 10 9 11 10 9 10 10 9 10 10 10 11 13 14 12 13 nan
nan 13 16 21 30 26 23 18 15 10 11 13 13 12 11 12 10 8 9 12 9 9 9 10 10 9 9 11 13 16 15 11 nan
nan 10 14 17 15 18 23 25 20 16 12 11 13 11 11 11 11 11 9 10 10 9 10 10 10 10 10 11 10 12 13 11 nan
nan 9 10 15 15 14 12 13 16 24 24 15 12 10 11 11 12 13 9 5 13 25 14 13 18 13 13 15 16 16 14 15 nan
nan 11 10 10 11 12 12 11 12 12 18 25 19 12 14 13 12 14 15 12 6 5 9 16 19 19 24 16 13 24 21 14 nan
nan nan nan nan nan nan nan nan nan nan nan nan nan nan nan nan nan nan nan nan nan nan nan nan nan nan nan nan nan nan nan nan nan